CW4745 Weather Reports


Display with metric or nautical units.
time (UTC)temp
F
wind
direction
speed
MPH
gust
MPH
rain 1hr
in
rain 24hr
in
rain mn
in
humidity
%
barometer
mb
20190116144224 44 180 15.0 28.0 0.00 0.00 0.00 85 1001.2
20190116143225 44 205 9.0 28.0 0.00 0.00 0.00 85 1001.6
20190116142225 44 175 16.0 32.0 0.00 0.00 0.00 85 1001.5
20190116141223 44 209 17.0 28.0 0.00 0.00 0.00 85 1001.6
20190116140223 44 216 15.0 29.0 0.00 0.00 0.00 86 1001.6
20190116135225 44 173 12.0 27.0 0.00 0.00 0.00 86 1001.8
20190116134222 44 161 13.0 32.0 0.00 0.00 0.00 86 1002.1
20190116133226 44 246 13.0 29.0 0.00 0.00 0.00 86 1002.3
20190116132222 44 214 11.0 33.0 0.00 0.00 0.00 86 1002.5
20190116131223 44 228 12.0 36.0 0.00 0.00 0.00 86 1002.6
20190116130221 44 205 11.0 34.0 0.00 0.00 0.00 86 1002.8
20190116125222 44 252 11.0 37.0 0.00 0.00 0.00 86 1003.1
20190116124220 44 147 10.0 23.0 0.00 0.00 0.00 86 1003.1
20190116123222 44 201 11.0 29.0 0.00 0.00 0.00 86 1003.2
20190116122223 44 226 13.0 33.0 0.00 0.00 0.00 86 1003.5
20190116121221 44 190 14.0 28.0 0.00 0.00 0.00 86 1003.5
20190116120220 44 153 14.0 34.0 0.00 0.00 0.00 86 1003.5
20190116115220 44 190 10.0 26.0 0.00 0.00 0.00 86 1003.5
20190116114221 44 222 12.0 29.0 0.00 0.00 0.00 86 1003.8
20190116113219 44 207 17.0 34.0 0.00 0.00 0.00 87 1004.0
20190116112223 44 175 13.0 32.0 0.00 0.00 0.00 87 1004.3
20190116111216 44 228 11.0 36.0 0.00 0.00 0.00 88 1004.5
20190116110216 44 164 13.0 27.0 0.00 0.00 0.00 89 1004.4
20190116105216 44 204 13.0 36.0 0.00 0.00 0.00 89 1004.6
20190116104216 44 215 10.0 33.0 0.00 0.00 0.00 89 1004.6
20190116103220 44 183 12.0 35.0 0.00 0.00 0.00 89 1004.9
20190116102216 44 228 12.0 28.0 0.00 0.00 0.00 89 1005.1
20190116101215 44 216 11.0 30.0 0.00 0.00 0.00 89 1005.0
20190116100214 44 184 10.0 28.0 0.00 0.00 0.00 89 1005.3
20190116095214 44 177 13.0 29.0 0.00 0.00 0.00 89 1005.5
20190116094213 44 201 13.0 29.0 0.00 0.00 0.00 89 1005.6
20190116093213 44 194 14.0 30.0 0.00 0.00 0.00 89 1005.5
20190116092219 45 225 15.0 26.0 0.00 0.00 0.00 89 1005.4
20190116091213 45 195 14.0 34.0 0.00 0.00 0.00 89 1005.8
20190116090213 45 202 10.0 32.0 0.00 0.00 0.00 89 1005.8
20190116085214 45 305 9.0 27.0 0.00 0.00 0.00 88 1005.8
20190116084212 45 259 8.0 29.0 0.00 0.00 0.00 88 1005.8
20190116083212 45 173 10.0 30.0 0.00 0.00 0.00 88 1006.0
20190116082212 45 205 13.0 27.0 0.00 0.00 0.00 88 1006.0
20190116081211 45 174 11.0 28.0 0.00 0.00 0.00 88 1006.2
20190116080211 45 159 12.0 27.0 0.00 0.00 0.00 88 1006.2
20190116075211 46 188 12.0 29.0 0.00 0.00 0.00 88 1006.2
20190116074211 46 202 12.0 28.0 0.00 0.00 0.00 88 1006.3
20190116073211 46 197 15.0 26.0 0.00 0.00 0.00 88 1006.3
20190116072212 46 219 13.0 28.0 0.00 0.00 0.00 88 1006.3
20190116071211 46 140 11.0 22.0 0.00 0.00 0.00 87 1006.4
20190116070212 46 207 11.0 24.0 0.00 0.00 0.00 87 1006.4
20190116065211 46 254 14.0 26.0 0.00 0.00 0.00 87 1006.3
20190116064211 46 263 10.0 23.0 0.00 0.00 0.00 87 1006.4
20190116063211 46 170 9.0 22.0 0.00 0.00 0.00 87 1006.4
20190116062210 47 188 10.0 23.0 0.00 0.00 0.00 87 1006.5
20190116061212 47 97 9.0 19.0 0.00 0.00 0.00 86 1006.8
20190116060211 47 225 8.0 20.0 0.00 0.00 0.00 85 1006.7
20190116055210 47 229 10.0 22.0 0.00 0.00 0.00 85 1006.9
20190116054211 47 185 11.0 22.0 0.00 0.00 0.00 84 1006.9
20190116053209 47 247 10.0 21.0 0.00 0.00 0.00 84 1007.0
20190116052209 47 194 11.0 20.0 0.00 0.00 0.00 83 1007.2
20190116051209 47 187 8.0 23.0 0.00 0.00 0.00 82 1007.3
20190116050210 47 249 9.0 20.0 0.00 0.00 0.00 81 1007.4
20190116045209 47 194 9.0 21.0 0.00 0.00 0.00 80 1007.4
20190116044208 47 245 9.0 18.0 0.00 0.00 0.00 80 1007.6
20190116043209 47 228 10.0 24.0 0.00 0.00 0.00 80 1007.7
20190116042208 47 225 9.0 22.0 0.00 0.00 0.00 81 1007.8
20190116041210 47 215 11.0 23.0 0.00 0.00 0.00 82 1008.0
20190116040209 47 230 12.0 26.0 0.00 0.00 0.00 82 1008.1
20190116035207 47 238 13.0 26.0 0.00 0.00 0.00 82 1008.2
20190116034208 47 229 11.0 26.0 0.00 0.00 0.00 82 1008.4
20190116033208 47 215 10.0 22.0 0.00 0.00 0.00 82 1008.6
20190116032208 47 249 12.0 23.0 0.00 0.00 0.00 82 1008.5
20190116031207 47 230 14.0 22.0 0.00 0.00 0.00 82 1008.7
20190116030210 47 185 9.0 22.0 0.00 0.00 0.00 83 1009.0
20190116025206 47 240 11.0 19.0 0.00 0.00 0.00 83 1009.0
20190116024206 47 226 12.0 24.0 0.00 0.00 0.00 83 1009.2
20190116023218 47 254 8.0 23.0 0.00 0.00 0.00 83 1009.3
20190116022204 47 230 10.0 22.0 0.00 0.00 0.00 83 1009.4
20190116021205 47 250 12.0 23.0 0.00 0.00 0.00 83 1009.2
20190116020206 47 226 12.0 21.0 0.00 0.00 0.00 83 1009.3
20190116015204 47 233 14.0 21.0 0.00 0.00 0.00 83 1009.4
20190116014204 47 215 15.0 24.0 0.00 0.00 0.00 83 1009.6
20190116013205 47 230 11.0 22.0 0.00 0.00 0.00 84 1009.6
20190116012203 47 240 12.0 26.0 0.00 0.00 0.00 84 1009.8
20190116011203 47 223 16.0 26.0 0.00 0.00 0.00 84 1009.9
20190116010204 47 230 12.0 24.0 0.00 0.00 0.00 84 1009.8
20190116005203 47 238 12.0 22.0 0.00 0.00 0.00 84 1010.0
20190116004204 47 240 14.0 24.0 0.00 0.00 0.00 84 1010.0
20190116003201 47 230 14.0 23.0 0.00 0.00 0.00 85 1010.1
20190116002203 47 223 12.0 22.0 0.00 0.00 0.00 85 1010.1
20190116001202 47 197 13.0 23.0 0.00 0.00 0.00 85 1010.2
20190116000202 47 215 12.0 22.0 0.00 0.00 0.00 86 1010.3
20190115235201 47 225 13.0 21.0 0.00 0.00 0.00 86 1010.5
20190115234201 47 240 10.0 21.0 0.00 0.00 0.00 86 1010.4
20190115233203 47 245 14.0 22.0 0.00 0.00 0.00 86 1010.6
20190115232201 47 252 12.0 21.0 0.00 0.00 0.00 86 1010.6
20190115231201 47 216 11.0 24.0 0.00 0.00 0.00 86 1010.7
20190115230201 47 243 11.0 19.0 0.00 0.00 0.00 86 1010.6
20190115225200 47 229 14.0 27.0 0.00 0.00 0.00 86 1010.8
20190115224200 47 232 11.0 22.0 0.00 0.00 0.00 86 1010.8
20190115223201 46 270 8.0 21.0 0.00 0.00 0.00 86 1011.1
20190115222159 46 240 11.0 21.0 0.00 0.00 0.00 86 1011.2
20190115221200 46 232 9.0 20.0 0.00 0.00 0.00 85 1011.3
20190115220158 46 229 11.0 20.0 0.00 0.00 0.00 86 1011.4
20190115215158 46 225 10.0 21.0 0.00 0.00 0.00 85 1011.6
20190115214156 46 261 13.0 20.0 0.00 0.00 0.00 85 1011.7
20190115213155 46 239 9.0 20.0 0.00 0.00 0.00 85 1011.8
20190115212157 46 192 9.0 19.0 0.00 0.00 0.00 85 1011.9
20190115211202 47 274 13.0 23.0 0.00 0.00 0.00 85 1012.0
20190115210159 47 247 13.0 21.0 0.00 0.00 0.00 85 1012.0
20190115205155 47 208 12.0 22.0 0.00 0.00 0.00 85 1012.1
20190115204155 47 235 12.0 24.0 0.00 0.00 0.00 85 1012.1
20190115203155 46 249 11.0 24.0 0.00 0.00 0.00 85 1012.2
20190115202154 46 259 11.0 21.0 0.00 0.00 0.00 85 1012.1
20190115201156 47 236 11.0 21.0 0.00 0.00 0.00 85 1012.2
20190115200155 47 198 14.0 22.0 0.00 0.00 0.00 85 1012.2
20190115195156 47 201 14.0 21.0 0.00 0.00 0.00 85 1012.3
20190115194158 47 181 12.0 19.0 0.00 0.00 0.00 85 1012.3
20190115193208 47 260 13.0 21.0 0.00 0.00 0.00 85 1012.3
20190115192206 47 230 13.0 23.0 0.00 0.00 0.00 85 1012.4
20190115191158 47 238 11.0 20.0 0.00 0.00 0.00 85 1012.5
20190115190206 47 259 9.0 20.0 0.00 0.00 0.00 85 1012.5
20190115185152 47 278 10.0 21.0 0.00 0.01 0.00 84 1012.6
20190115184153 47 243 12.0 23.0 0.00 0.01 0.00 84 1012.5
20190115183152 47 247 12.0 20.0 0.00 0.01 0.00 85 1012.6
20190115182153 47 274 11.0 22.0 0.00 0.01 0.00 85 1012.5
20190115181153 47 175 10.0 18.0 0.00 0.01 0.00 85 1012.7
20190115180152 47 199 9.0 20.0 0.00 0.01 0.00 85 1012.7
20190115175152 47 191 12.0 22.0 0.00 0.01 0.00 84 1012.7
20190115174152 47 236 11.0 21.0 0.00 0.01 0.00 84 1012.7
20190115173153 47 247 11.0 22.0 0.00 0.01 0.00 84 1012.8
20190115172151 47 243 10.0 21.0 0.00 0.01 0.00 84 1012.8
20190115171151 47 278 9.0 20.0 0.00 0.01 0.00 84 1012.9
20190115170150 47 269 12.0 17.0 0.00 0.01 0.00 84 1012.9
20190115165153 47 242 9.0 17.0 0.00 0.01 0.00 84 1012.9
20190115164150 47 235 11.0 17.0 0.00 0.01 0.00 84 1012.9
20190115163150 47 266 12.0 21.0 0.00 0.01 0.00 84 1013.0
20190115162150 47 252 10.0 17.0 0.00 0.01 0.00 83 1013.1
20190115161150 47 266 9.0 20.0 0.00 0.01 0.00 83 1013.1
20190115160202 47 249 11.0 21.0 0.00 0.01 0.00 83 1013.0
20190115155150 47 260 11.0 19.0 0.00 0.01 0.00 83 1013.0
20190115154155 47 236 9.0 18.0 0.00 0.01 0.00 83 1013.1
20190115153148 47 233 11.0 19.0 0.00 0.01 0.00 83 1013.0
20190115152150 47 232 10.0 22.0 0.00 0.01 0.00 83 1013.1
20190115151149 46 249 10.0 22.0 0.00 0.01 0.00 84 1013.1
20190115150150 46 236 12.0 20.0 0.00 0.01 0.00 84 1013.0
20190115145152 46 263 11.0 22.0 0.00 0.01 0.00 84 1013.1